Previsão horária em Abbakumovo

Hoje, 12 Abril, Segunda-feira

Tempo Temperatura Precipitação Vento Pressão Humidade
00:00 +7°C° 0 mm 2 m/s 752 mmHg 75%
01:00 +6°C° 0 mm 2 m/s 753 mmHg 76%
02:00 +6°C° 0 mm 2 m/s 753 mmHg 76%
03:00 +6°C° 0 mm 2 m/s 753 mmHg 77%
04:00 +5°C° 0 mm 2 m/s 753 mmHg 77%
05:00 +5°C° 0 mm 2 m/s 753 mmHg 78%
06:00 +5°C° 0 mm 3 m/s 753 mmHg 72%
07:00 +8°C° 0 mm 3 m/s 752 mmHg 67%
08:00 +10°C° 0 mm 4 m/s 752 mmHg 61%
09:00 +11°C° 0 mm 4 m/s 752 mmHg 55%
10:00 +12°C° 0 mm 5 m/s 752 mmHg 49%
11:00 +13°C° 0 mm 5 m/s 751 mmHg 43%
12:00 +13°C° 0 mm 5 m/s 751 mmHg 44%
13:00 +12°C° 0 mm 5 m/s 750 mmHg 45%
14:00 +12°C° 0 mm 5 m/s 750 mmHg 46%
15:00 +12°C° 0 mm 5 m/s 750 mmHg 54%
16:00 +12°C° 0 mm 4 m/s 749 mmHg 62%
17:00 +12°C° 0 mm 4 m/s 749 mmHg 70%
18:00 +11°C° 0 mm 4 m/s 749 mmHg 75%
19:00 +10°C° 0 mm 3 m/s 749 mmHg 81%
20:00 +9°C° 0 mm 3 m/s 749 mmHg 87%
21:00 +9°C° 0 mm 3 m/s 748 mmHg 89%
22:00 +9°C° 0 mm 3 m/s 748 mmHg 92%
23:00 +8°C° 0 mm 2 m/s 748 mmHg 94%

Amanhã, 13 Abril, Terça-feira

Tempo Temperatura Precipitação Vento Pressão Humidade
00:00 +8°C° 0 mm 2 m/s 747 mmHg 94%
01:00 +8°C° 0 mm 2 m/s 747 mmHg 94%
02:00 +8°C° 0 mm 3 m/s 747 mmHg 94%
03:00 +8°C° 0 mm 3 m/s 747 mmHg 93%
04:00 +7°C° 0 mm 3 m/s 746 mmHg 93%
05:00 +7°C° 0 mm 3 m/s 746 mmHg 93%
06:00 +9°C° 0 mm 3 m/s 746 mmHg 86%
07:00 +10°C° 0 mm 3 m/s 746 mmHg 80%
08:00 +11°C° 0 mm 4 m/s 746 mmHg 74%
09:00 +13°C° 0 mm 4 m/s 746 mmHg 67%
10:00 +15°C° 0 mm 4 m/s 746 mmHg 60%
11:00 +17°C° 0 mm 5 m/s 746 mmHg 54%
12:00 +19°C° 0 mm 5 m/s 746 mmHg 50%
13:00 +20°C° 0 mm 5 m/s 746 mmHg 46%
14:00 +20°C° 0 mm 5 m/s 746 mmHg 42%
15:00 +19°C° 0 mm 5 m/s 745 mmHg 46%
16:00 +19°C° 0 mm 5 m/s 745 mmHg 50%
17:00 +17°C° 0 mm 5 m/s 745 mmHg 54%
18:00 +17°C° 0 mm 4 m/s 745 mmHg 58%
19:00 +14°C° 0 mm 4 m/s 745 mmHg 63%
20:00 +13°C° 0 mm 3 m/s 745 mmHg 67%
21:00 +13°C° 0 mm 3 m/s 745 mmHg 70%
22:00 +12°C° 0 mm 3 m/s 745 mmHg 72%
23:00 +12°C° 0 mm 2 m/s 744 mmHg 75%

Depois de amanhã, 14 Abril, Quarta-feira

Tempo Temperatura Precipitação Vento Pressão Humidade
00:00 +12°C° 0 mm 2 m/s 744 mmHg 75%
01:00 +11°C° 0 mm 3 m/s 744 mmHg 76%
02:00 +11°C° 0 mm 3 m/s 744 mmHg 76%
03:00 +10°C° 0 mm 3 m/s 744 mmHg 79%
04:00 +9°C° 0 mm 3 m/s 744 mmHg 82%
05:00 +9°C° 0 mm 3 m/s 743 mmHg 85%
06:00 +10°C° 0 mm 3 m/s 743 mmHg 83%
07:00 +10°C° 0 mm 3 m/s 743 mmHg 81%
08:00 +11°C° 0 mm 3 m/s 743 mmHg 79%
09:00 +12°C° 0 mm 3 m/s 743 mmHg 75%
10:00 +13°C° 0 mm 3 m/s 743 mmHg 72%
11:00 +14°C° 0 mm 4 m/s 743 mmHg 68%
12:00 +14°C° 0.2 mm 3 m/s 743 mmHg 68%
13:00 +14°C° 0.2 mm 3 m/s 743 mmHg 67%
14:00 +15°C° 0.2 mm 2 m/s 743 mmHg 67%
15:00 +15°C° 0.1 mm 2 m/s 743 mmHg 70%
16:00 +14°C° 0.1 mm 2 m/s 742 mmHg 74%
17:00 +14°C° 0.1 mm 2 m/s 742 mmHg 77%
18:00 +13°C° 0 mm 2 m/s 742 mmHg 77%
19:00 +13°C° 0 mm 2 m/s 742 mmHg 78%
20:00 +12°C° 0 mm 2 m/s 742 mmHg 79%
21:00 +12°C° 0 mm 2 m/s 742 mmHg 79%
22:00 +10°C° 0 mm 2 m/s 742 mmHg 79%
23:00 +10°C° 0 mm 2 m/s 742 mmHg 80%

15 Abril, Quinta-feira

Tempo Temperatura Precipitação Vento Pressão Humidade
00:00 +10°C° 0 mm 2 m/s 742 mmHg 80%
01:00 +9°C° 0 mm 2 m/s 742 mmHg 79%
02:00 +9°C° 0 mm 2 m/s 742 mmHg 79%
03:00 +9°C° 0 mm 2 m/s 742 mmHg 80%
04:00 +9°C° 0 mm 2 m/s 742 mmHg 80%
05:00 +9°C° 0 mm 2 m/s 742 mmHg 81%
06:00 +9°C° 0 mm 2 m/s 742 mmHg 80%
07:00 +10°C° 0 mm 2 m/s 742 mmHg 78%
08:00 +10°C° 0 mm 2 m/s 742 mmHg 77%
09:00 +13°C° 0.1 mm 2 m/s 742 mmHg 71%
10:00 +14°C° 0.1 mm 2 m/s 742 mmHg 65%
11:00 +14°C° 0.1 mm 3 m/s 742 mmHg 59%
12:00 +14°C° 0.1 mm 3 m/s 742 mmHg 60%
13:00 +15°C° 0.1 mm 2 m/s 742 mmHg 61%
14:00 +15°C° 0.1 mm 2 m/s 742 mmHg 63%
15:00 +15°C° 0 mm 2 m/s 742 mmHg 66%
16:00 +14°C° 0 mm 2 m/s 742 mmHg 69%
17:00 +14°C° 0 mm 2 m/s 742 mmHg 72%
18:00 +13°C° 0 mm 2 m/s 742 mmHg 74%
19:00 +12°C° 0 mm 2 m/s 742 mmHg 76%
20:00 +11°C° 0 mm 3 m/s 742 mmHg 78%
21:00 +10°C° 0 mm 3 m/s 742 mmHg 81%
22:00 +10°C° 0 mm 4 m/s 742 mmHg 84%
23:00 +8°C° 0 mm 5 m/s 742 mmHg 87%

16 Abril, Sexta-feira

Tempo Temperatura Precipitação Vento Pressão Humidade
00:00 +8°C° 0 mm 5 m/s 742 mmHg 89%
01:00 +8°C° 0 mm 4 m/s 742 mmHg 91%
02:00 +7°C° 0 mm 4 m/s 742 mmHg 92%
03:00 +7°C° 0.1 mm 5 m/s 742 mmHg 93%
04:00 +7°C° 0.1 mm 5 m/s 742 mmHg 93%
05:00 +7°C° 0.1 mm 5 m/s 742 mmHg 94%
06:00 +7°C° 0.2 mm 6 m/s 743 mmHg 93%
07:00 +7°C° 0.2 mm 6 m/s 743 mmHg 92%
08:00 +7°C° 0.2 mm 6 m/s 743 mmHg 91%
09:00 +7°C° 0.2 mm 6 m/s 743 mmHg 89%
10:00 +7°C° 0.2 mm 6 m/s 744 mmHg 88%
11:00 +8°C° 0.2 mm 6 m/s 744 mmHg 86%
12:00 +9°C° 0.2 mm 6 m/s 744 mmHg 82%
13:00 +10°C° 0.2 mm 6 m/s 744 mmHg 77%
14:00 +11°C° 0.2 mm 6 m/s 744 mmHg 73%
15:00 +11°C° 0 mm 7 m/s 744 mmHg 72%
16:00 +11°C° 0 mm 7 m/s 744 mmHg 70%
17:00 +11°C° 0 mm 7 m/s 744 mmHg 69%
18:00 +10°C° 0 mm 7 m/s 745 mmHg 72%
19:00 +9°C° 0 mm 7 m/s 745 mmHg 75%
20:00 +8°C° 0 mm 7 m/s 746 mmHg 78%
21:00 +8°C° 0.1 mm 7 m/s 746 mmHg 79%
22:00 +6°C° 0.1 mm 7 m/s 746 mmHg 79%
23:00 +6°C° 0.1 mm 7 m/s 747 mmHg 79%

17 Abril, Sábado

Tempo Temperatura Precipitação Vento Pressão Humidade
00:00 +7°C° 0 mm 6 m/s 747 mmHg 77%
01:00 +5°C° 0 mm 6 m/s 747 mmHg 76%
02:00 +5°C° 0 mm 6 m/s 748 mmHg 74%
03:00 +4°C° 0 mm 6 m/s 748 mmHg 74%
04:00 +4°C° 0 mm 6 m/s 748 mmHg 75%
05:00 +3°C° 0 mm 6 m/s 749 mmHg 75%
06:00 +4°C° 0 mm 6 m/s 749 mmHg 72%
07:00 +5°C° 0 mm 6 m/s 750 mmHg 69%
08:00 +5°C° 0 mm 6 m/s 750 mmHg 66%
09:00 +7°C° 0 mm 6 m/s 750 mmHg 60%
10:00 +9°C° 0 mm 7 m/s 751 mmHg 53%
11:00 +10°C° 0 mm 7 m/s 751 mmHg 47%
12:00 +11°C° 0 mm 7 m/s 751 mmHg 44%
13:00 +11°C° 0 mm 7 m/s 751 mmHg 41%
14:00 +12°C° 0 mm 7 m/s 751 mmHg 38%
15:00 +11°C° 0 mm 6 m/s 751 mmHg 40%
16:00 +11°C° 0 mm 6 m/s 752 mmHg 41%
17:00 +10°C° 0 mm 5 m/s 752 mmHg 43%
18:00 +9°C° 0 mm 5 m/s 752 mmHg 48%
19:00 +7°C° 0 mm 4 m/s 752 mmHg 53%
20:00 +6°C° 0 mm 4 m/s 753 mmHg 58%
21:00 +5°C° 0 mm 4 m/s 753 mmHg 60%
22:00 +4°C° 0 mm 4 m/s 753 mmHg 62%
23:00 +4°C° 0 mm 4 m/s 753 mmHg 64%
Mostrar mais